GW6707 Weather Reports


time (UTC)temp
C
wind
direction
speed
KPH
gust
KPH
rain 1hr
cm
rain 24hr
cm
rain mn
cm
humidity
%
barometer
mb
20260506013022 10 196 0.0 3.2 0.00 2.69 0.56 95 1012.1
20260506011520 10 196 0.0 1.6 0.00 2.69 0.56 95 1012.3
20260506010046 10 196 0.0 3.2 0.00 2.67 0.56 95 1012.5
20260506004522 10 196 0.0 3.2 0.00 2.67 0.56 95 1012.7
20260506003023 10 172 0.0 3.2 0.00 2.67 0.56 95 1012.9
20260506001522 10 184 0.0 3.2 0.00 2.67 0.56 95 1013.0
20260506000022 10 179 0.0 3.2 0.08 2.67 0.56 95 1013.0
20260505234522 10 134 1.6 3.2 0.08 2.64 0.53 95 1013.3
20260505233025 10 134 0.0 3.2 0.18 2.64 0.53 95 1013.4
20260505231517 10 124 0.0 4.8 0.46 2.64 0.53 95 1013.5
20260505230031 10 136 1.6 3.2 0.46 2.59 0.46 95 1013.6
20260505224526 10 136 0.0 3.2 0.46 2.54 0.43 95 1013.7
20260505223028 10 135 0.0 3.2 0.36 2.44 0.33 95 1013.7
20260505221524 10 206 0.0 3.2 0.15 2.16 0.05 95 1013.7
20260505220024 10 148 0.0 3.2 0.08 2.11 0.00 95 1013.8
20260505214522 10 137 0.0 3.2 0.08 2.06 2.06 95 1014.0
20260505213028 10 118 0.0 3.2 0.08 2.06 2.06 95 1014.2
20260505211526 10 117 0.0 3.2 0.05 2.01 2.01 94 1014.3
20260505210026 10 119 1.6 4.8 0.13 2.01 2.01 95 1014.3
20260505204521 10 136 0.0 3.2 0.18 1.98 1.98 94 1014.4
20260505203007 10 130 0.0 3.2 0.30 1.96 1.96 94 1014.5
20260505201510 10 130 0.0 3.2 0.36 1.96 1.96 94 1014.5
20260505200014 10 123 0.0 3.2 0.28 1.88 1.88 94 1014.5
20260505194519 10 226 0.0 3.2 0.28 1.80 1.80 94 1014.3
20260505193026 10 146 1.6 4.8 0.15 1.65 1.65 94 1014.3
20260505191507 10 179 0.0 3.2 0.10 1.57 1.57 94 1014.2
20260505190025 10 188 0.0 3.2 0.08 1.57 1.57 94 1014.1
20260505184518 10 220 0.0 3.2 0.08 1.50 1.50 93 1013.9
20260505183023 10 216 0.0 3.2 0.15 1.50 1.50 93 1014.0
20260505181532 10 298 0.0 3.2 0.23 1.47 1.47 93 1014.0
20260505180011 10 271 1.6 3.2 0.28 1.47 1.47 93 1013.9
20260505174519 10 271 1.6 3.2 0.25 1.42 1.42 93 1013.9
20260505173034 10 232 0.0 3.2 0.18 1.32 1.32 92 1014.0
20260505171540 10 232 0.0 3.2 0.08 1.22 1.22 92 1014.1
20260505170017 10 142 0.0 3.2 0.05 1.19 1.19 92 1014.1
20260505164514 10 307 0.0 4.8 0.03 1.17 1.17 92 1014.1
20260505163016 10 288 1.6 3.2 0.03 1.14 1.14 92 1014.2
20260505161522 10 248 0.0 3.2 0.03 1.14 1.14 92 1014.2
20260505153018 10 257 0.0 3.2 0.00 1.12 1.12 91 1014.5
20260505151530 10 251 0.0 3.2 0.03 1.12 1.12 91 1014.4
20260505124526 10 228 0.0 3.2 0.00 1.02 1.02 89 1014.9
20260505123029 10 220 0.0 3.2 0.00 1.02 1.02 89 1014.9
20260505121532 10 222 0.0 3.2 0.00 1.02 1.02 90 1015.0
20260505120048 11 306 0.0 4.8 0.03 1.02 1.02 88 1015.0
20260505114503 10 205 0.0 3.2 0.03 1.02 1.02 89 1015.1
20260505113006 10 270 0.0 3.2 0.03 1.02 1.02 89 1015.3
20260505111512 10 153 0.0 3.2 0.00 0.99 0.99 89 1015.3
20260505101519 11 302 1.6 3.2 0.10 0.97 0.97 87 1015.3
20260505100022 11 162 1.6 4.8 0.13 0.94 0.94 87 1015.4
20260505094522 11 209 0.0 3.2 0.15 0.91 0.91 88 1015.6
20260505093025 11 301 0.0 3.2 0.13 0.89 0.89 86 1015.6
20260505091521 10 296 0.0 4.8 0.10 0.84 0.84 86 1015.5
20260505090026 11 208 0.0 3.2 0.08 0.81 0.81 87 1015.4
20260505084516 11 322 1.6 4.8 0.05 0.74 0.74 84 1015.2
20260505083021 10 317 1.6 6.4 0.08 0.74 0.74 84 1015.0
20260505081528 10 318 0.0 4.8 0.08 0.74 0.74 83 1015.0
20260505080008 10 312 0.0 3.2 0.18 0.71 0.71 84 1015.0
20260505074515 10 320 0.0 4.8 0.36 0.69 0.69 85 1015.0
20260505073032 10 315 1.6 6.4 0.43 0.66 0.66 84 1015.2
20260505071524 10 9 0.0 3.2 0.43 0.64 0.64 86 1015.3
20260505070026 10 296 0.0 3.2 0.36 0.53 0.53 87 1015.3
20260505064531 10 316 0.0 4.8 0.18 0.33 0.33 83 1015.0
20260505063019 10 215 0.0 3.2 0.10 0.23 0.23 84 1014.9
20260505061531 11 9 0.0 8.0 0.10 0.18 0.18 83 1014.8
20260505060028 11 329 1.6 11.3 0.08 0.18 0.18 81 1014.7
20260505054544 10 313 3.2 4.8 0.08 0.13 0.13 83 1014.6
20260505053032 10 290 1.6 6.4 0.08 0.10 0.10 83 1014.4
20260505051521 10 319 0.0 3.2 0.05 0.08 0.08 82 1014.2
20260505041528 11 244 1.6 3.2 0.00 0.00 0.00 79 1014.2
20260505040021 12 317 0.0 3.2 0.00 0.00 0.00 75 1014.2
20260505034528 12 311 1.6 4.8 0.00 0.00 0.00 72 1014.1
20260505033028 12 319 0.0 3.2 0.00 0.00 0.00 72 1014.3
20260505031542 12 309 1.6 4.8 0.00 0.00 0.00 70 1014.3
20260505030030 12 228 0.0 6.4 0.00 0.00 0.00 70 1014.2
20260505024533 12 290 0.0 3.2 0.00 0.00 0.00 68 1014.5
20260505023011 12 265 0.0 3.2 0.00 0.00 0.00 70 1015.1
20260505021518 12 195 0.0 3.2 0.00 0.00 0.00 69 1015.2
20260505020029 13 315 0.0 3.2 0.00 0.00 0.00 69 1015.4
20260505014528 13 319 0.0 3.2 0.00 0.00 0.00 67 1015.4